Home > Weather > Braunschweig > Past weeks

Flag for Germany Weather for the Past 2 Weeks in Braunschweig, Lower Saxony, Germany

Now
36 °F

Fog.


Feels Like: 33 °F
Forecast: 41 / 54 °F
Wind: 3 mph from South

Location: Celle Airport

Current Time: Apr 29, 2016 at 4:27:54 AM

Latest Report: Apr 29, 2016 at 3:20 AM


Visibility: N/A

Pressure: 29.98 "Hg

Humidity: 93%

Dew Point: 34 °F

Location of BraunschweigLocation

Historic Weather in Braunschweig — Graph

°F

Braunschweig Temperature Yesterday

Maximum temperature yesterday: 46 °F (at 2:20 PM)
Minimum temperature yesterday: 34 °F (at 6:20 AM)
Average temperature yesterday: 40 °F

High & Low Weather Summary for the Past Weeks

 TemperatureHumidityPressure
High61 °F (Apr 21, 5:20 PM)100% (Apr 14, 4:20 AM)30.45 "Hg (Apr 14, 4:20 AM)
Low28 °F (Apr 25, 3:20 AM)29% (Apr 21, 5:20 PM)29.42 "Hg (Apr 26, 12:20 PM)
Average44 °F75%29.87 "Hg
* Reported Apr 14 2:20 AM — Apr 29 2:20 AM, Braunschweig, Weather by CustomWeather, © 2016

Note: Actual official high and low records may vary slightly from our data, if they occured in-between our weather recording intervals... More about our weather records

Advertising

Braunschweig Weather History for the Previous 24 Hours

Scroll right to see more
 ConditionsComfort  
Time TempWeatherWind HumidityBarometerVisibility
2:20 AM
Fri, Apr 29
36 °FFog.5 mph93%29.98 "HgN/A
1:20 AM37 °FPassing clouds.2 mph93%29.98 "HgN/A
12:20 AM37 °FPartly cloudy.2 mph93%29.98 "HgN/A
11:20 PM
Thu, Apr 28
37 °FPassing clouds.2 mph93%29.98 "HgN/A
10:20 PM37 °FFog.1 mph93%29.98 "HgN/A
9:20 PM39 °FFog.1 mph93%29.98 "HgN/A
8:20 PM41 °FScattered clouds.2 mph93%29.98 "HgN/A
7:20 PM45 °FScattered clouds.3 mph71%29.98 "HgN/A
6:20 PM45 °FScattered clouds.3 mph71%29.95 "HgN/A
5:47 PM43 °FBroken clouds.7 mph81%29.95 "HgN/A
5:20 PM43 °FHail. Broken clouds.12 mph71%29.95 "HgN/A
4:20 PM46 °FBroken clouds.5 mph66%29.95 "HgN/A
3:20 PM43 °FSprinkles. Broken clouds.12 mph71%29.92 "HgN/A
2:20 PM46 °FBroken clouds.7 mph66%29.92 "HgN/A
1:20 PM43 °FPartly sunny.16 mph71%29.92 "HgN/A
12:20 PM45 °FBroken clouds.9 mph76%29.89 "HgN/A
11:20 AM41 °FSprinkles. Partly sunny.9 mph81%29.89 "HgN/A
10:20 AM41 °FPartly sunny.13 mph81%29.89 "HgN/A
9:48 AM41 °FScattered clouds.13 mph81%29.86 "HgN/A
9:20 AM39 °FSprinkles. Partly sunny.12 mph87%29.86 "HgN/A
7:20 AM36 °FScattered clouds.8 mph93%29.83 "HgN/A
6:20 AM34 °FPartly cloudy.8 mph100%29.80 "HgN/A
5:20 AM36 °FPassing clouds.8 mph93%29.80 "HgN/A
4:20 AM36 °FPassing clouds.8 mph93%29.80 "HgN/A
Weather by CustomWeather, © 2016

See weather overviewHow to use our weather pages